Time,TemperatureF,DewpointF,PressureIn,WindDirection,WindDirectionDegrees,WindSpeedMPH,WindSpeedGustMPH,Humidity,HourlyPrecipIn,Conditions,Clouds,dailyrainin,SoftwareType,DateUTC
2013-04-22 00:01:00,37.6,20.2,30.46,West,265,0.0,0.0,49,0.00,,CLR,0.00,VWS V13.01,2013-04-22 04:01:00,
2013-04-22 00:06:00,37.4,20.0,30.49,West,265,0.0,0.0,49,0.00,,CLR,0.00,VWS V13.01,2013-04-22 04:06:00,
2013-04-22 00:11:00,37.2,20.3,30.49,West,262,0.0,0.0,50,0.00,,CLR,0.00,VWS V13.01,2013-04-22 04:11:00,
2013-04-22 00:16:00,37.0,20.1,30.49,WSW,238,0.0,0.0,50,0.00,,CLR,0.00,VWS V13.01,2013-04-22 04:16:00,
2013-04-22 00:21:00,36.9,20.0,30.49,WSW,238,0.0,0.0,50,0.00,,CLR,0.00,VWS V13.01,2013-04-22 04:21:00,
2013-04-22 00:26:00,36.7,19.8,30.49,WSW,238,0.0,0.0,50,0.00,,CLR,0.00,VWS V13.01,2013-04-22 04:26:00,
2013-04-22 00:31:00,36.7,20.3,30.49,WSW,238,0.0,0.0,51,0.00,,CLR,0.00,VWS V13.01,2013-04-22 04:31:00,
2013-04-22 00:36:00,36.5,20.1,30.49,WSW,238,0.0,0.0,51,0.00,,CLR,0.00,VWS V13.01,2013-04-22 04:36:00,
2013-04-22 00:41:00,36.3,19.9,30.49,WSW,238,0.0,0.0,51,0.00,,CLR,0.00,VWS V13.01,2013-04-22 04:41:00,
2013-04-22 00:46:00,36.0,19.6,30.49,WSW,238,0.0,0.0,51,0.00,,CLR,0.00,VWS V13.01,2013-04-22 04:46:00,
2013-04-22 00:51:00,35.8,19.4,30.49,WSW,238,0.0,0.0,51,0.00,,CLR,0.00,VWS V13.01,2013-04-22 04:51:00,
2013-04-22 00:56:00,35.8,19.4,30.49,WSW,238,0.0,0.0,51,0.00,,CLR,0.00,VWS V13.01,2013-04-22 04:56:00,
2013-04-22 01:01:00,35.6,19.3,30.49,WSW,238,0.0,0.0,51,0.00,,CLR,0.00,VWS V13.01,2013-04-22 05:01:00,
2013-04-22 01:06:00,35.4,19.6,30.46,WSW,238,0.0,0.0,52,0.00,,CLR,0.00,VWS V13.01,2013-04-22 05:06:00,
2013-04-22 01:11:00,35.2,19.4,30.46,WSW,238,0.0,0.0,52,0.00,,CLR,0.00,VWS V13.01,2013-04-22 05:11:00,
2013-04-22 01:16:00,35.1,19.2,30.46,WSW,238,0.0,0.0,52,0.00,,CLR,0.00,VWS V13.01,2013-04-22 05:16:00,
2013-04-22 01:21:00,34.9,19.1,30.46,WSW,238,0.0,0.0,52,0.00,,CLR,0.00,VWS V13.01,2013-04-22 05:21:00,
2013-04-22 01:26:00,34.9,19.5,30.46,WSW,238,0.0,0.0,53,0.00,,CLR,0.00,VWS V13.01,2013-04-22 05:26:00,
2013-04-22 01:31:00,34.7,19.3,30.46,WSW,238,0.0,0.0,53,0.00,,CLR,0.00,VWS V13.01,2013-04-22 05:31:00,
2013-04-22 01:36:00,34.9,19.9,30.46,WSW,238,0.0,0.0,54,0.00,,CLR,0.00,VWS V13.01,2013-04-22 05:36:00,
2013-04-22 01:41:00,34.9,19.9,30.46,WSW,239,3.4,3.4,54,0.00,,CLR,0.00,VWS V13.01,2013-04-22 05:41:00,
2013-04-22 01:46:00,34.7,20.2,30.46,WSW,250,0.0,3.4,55,0.00,,CLR,0.00,VWS V13.01,2013-04-22 05:46:00,
2013-04-22 01:51:00,34.5,19.6,30.46,West,261,3.4,3.9,54,0.00,,CLR,0.00,VWS V13.01,2013-04-22 05:51:00,
2013-04-22 01:56:00,34.5,20.5,30.46,WSW,254,0.0,0.0,56,0.00,,CLR,0.00,VWS V13.01,2013-04-22 05:56:00,
2013-04-22 02:01:00,34.5,20.5,30.46,WSW,251,0.0,0.0,56,0.00,,CLR,0.00,VWS V13.01,2013-04-22 06:01:00,
2013-04-22 02:06:00,34.5,20.5,30.46,WSW,251,0.0,0.0,56,0.00,,CLR,0.00,VWS V13.01,2013-04-22 06:06:00,
2013-04-22 02:11:00,34.5,20.5,30.46,WSW,251,0.0,0.0,56,0.00,,CLR,0.00,VWS V13.01,2013-04-22 06:11:00,
2013-04-22 02:16:00,34.3,20.3,30.46,WSW,251,0.0,0.0,56,0.00,,CLR,0.00,VWS V13.01,2013-04-22 06:16:00,
2013-04-22 02:21:00,34.3,20.3,30.46,West,266,2.8,3.4,56,0.00,,CLR,0.00,VWS V13.01,2013-04-22 06:21:00,
2013-04-22 02:26:00,34.3,21.5,30.46,West,266,0.0,0.0,59,0.00,,CLR,0.00,VWS V13.01,2013-04-22 06:26:00,
2013-04-22 02:31:00,34.2,20.9,30.46,West,260,3.4,3.4,58,0.00,,CLR,0.00,VWS V13.01,2013-04-22 06:31:00,
2013-04-22 02:36:00,34.0,20.8,30.46,West,266,3.4,3.9,58,0.00,,CLR,0.00,VWS V13.01,2013-04-22 06:36:00,
2013-04-22 02:41:00,34.0,20.8,30.46,West,259,3.4,4.5,58,0.00,,CLR,0.00,VWS V13.01,2013-04-22 06:41:00,
2013-04-22 02:46:00,34.2,21.7,30.46,West,262,5.0,6.2,60,0.00,,CLR,0.00,VWS V13.01,2013-04-22 06:46:00,
2013-04-22 02:51:00,34.3,21.9,30.46,West,270,3.4,3.4,60,0.00,,CLR,0.00,VWS V13.01,2013-04-22 06:51:00,
2013-04-22 02:56:00,34.5,22.1,30.46,West,269,3.9,5.0,60,0.00,,CLR,0.00,VWS V13.01,2013-04-22 06:56:00,
2013-04-22 03:01:00,34.5,22.1,30.46,West,263,0.0,4.5,60,0.00,,CLR,0.00,VWS V13.01,2013-04-22 07:01:00,
2013-04-22 03:06:00,34.5,22.1,30.46,West,266,0.0,0.0,60,0.00,,CLR,0.00,VWS V13.01,2013-04-22 07:06:00,
2013-04-22 03:11:00,34.3,21.9,30.46,West,266,0.0,0.0,60,0.00,,CLR,0.00,VWS V13.01,2013-04-22 07:11:00,
2013-04-22 03:16:00,34.2,21.7,30.46,West,265,0.0,0.0,60,0.00,,CLR,0.00,VWS V13.01,2013-04-22 07:16:00,
2013-04-22 03:21:00,34.0,21.6,30.46,West,265,0.0,0.0,60,0.00,,CLR,0.00,VWS V13.01,2013-04-22 07:21:00,
2013-04-22 03:26:00,33.8,21.4,30.46,West,266,0.0,0.0,60,0.00,,CLR,0.00,VWS V13.01,2013-04-22 07:26:00,
2013-04-22 03:31:00,33.4,21.1,30.46,West,266,0.0,0.0,60,0.00,,CLR,0.00,VWS V13.01,2013-04-22 07:31:00,
2013-04-22 03:36:00,33.3,20.9,30.46,West,266,0.0,0.0,60,0.00,,CLR,0.00,VWS V13.01,2013-04-22 07:36:00,
2013-04-22 03:41:00,32.9,20.5,30.46,West,266,0.0,0.0,60,0.00,,CLR,0.00,VWS V13.01,2013-04-22 07:41:00,
2013-04-22 03:46:00,32.7,20.4,30.46,West,266,0.0,0.0,60,0.00,,CLR,0.00,VWS V13.01,2013-04-22 07:46:00,
2013-04-22 03:51:00,32.5,20.2,30.46,West,265,0.0,0.0,60,0.00,,CLR,0.00,VWS V13.01,2013-04-22 07:51:00,
2013-04-22 03:56:00,32.4,20.4,30.46,West,266,0.0,0.0,61,0.00,,CLR,0.00,VWS V13.01,2013-04-22 07:56:00,
2013-04-22 04:01:00,32.0,20.1,30.46,West,265,0.0,0.0,61,0.00,,CLR,0.00,VWS V13.01,2013-04-22 08:01:00,
2013-04-22 04:06:00,31.8,19.9,30.46,West,265,0.0,0.0,61,0.00,,CLR,0.00,VWS V13.01,2013-04-22 08:06:00,
2013-04-22 04:11:00,31.6,19.8,30.46,West,266,0.0,0.0,61,0.00,,CLR,0.00,VWS V13.01,2013-04-22 08:11:00,
2013-04-22 04:16:00,31.6,19.8,30.46,West,266,0.0,0.0,61,0.00,,CLR,0.00,VWS V13.01,2013-04-22 08:16:00,
2013-04-22 04:21:00,31.3,19.4,30.46,West,265,0.0,0.0,61,0.00,,CLR,0.00,VWS V13.01,2013-04-22 08:21:00,
2013-04-22 04:27:00,31.1,19.2,30.46,West,266,0.0,0.0,61,0.00,,CLR,0.00,VWS V13.01,2013-04-22 08:27:00,
2013-04-22 04:32:00,31.1,19.2,30.46,West,275,2.8,3.4,61,0.00,,CLR,0.00,VWS V13.01,2013-04-22 08:32:00,
2013-04-22 04:37:00,31.5,20.0,30.46,West,268,3.4,4.5,62,0.00,,CLR,0.00,VWS V13.01,2013-04-22 08:37:00,
2013-04-22 04:42:00,31.6,20.1,30.46,West,265,2.8,3.4,62,0.00,,CLR,0.00,VWS V13.01,2013-04-22 08:42:00,
2013-04-22 04:47:00,31.8,20.3,30.46,West,263,3.4,3.9,62,0.00,,CLR,0.00,VWS V13.01,2013-04-22 08:47:00,
2013-04-22 04:52:00,31.8,20.3,30.46,West,278,2.8,3.4,62,0.00,,CLR,0.00,VWS V13.01,2013-04-22 08:52:00,
2013-04-22 04:57:00,31.8,20.3,30.46,West,278,0.0,0.0,62,0.00,,CLR,0.00,VWS V13.01,2013-04-22 08:57:00,
2013-04-22 05:02:00,31.6,20.1,30.46,West,266,0.0,2.8,62,0.00,,CLR,0.00,VWS V13.01,2013-04-22 09:02:00,
2013-04-22 05:07:00,31.6,20.1,30.46,WNW,294,0.0,0.0,62,0.00,,CLR,0.00,VWS V13.01,2013-04-22 09:07:00,
2013-04-22 05:12:00,31.6,20.5,30.46,NW,306,0.0,0.0,63,0.00,,CLR,0.00,VWS V13.01,2013-04-22 09:12:00,
2013-04-22 05:17:00,31.6,20.5,30.46,NW,307,0.0,0.0,63,0.00,,CLR,0.00,VWS V13.01,2013-04-22 09:17:00,
2013-04-22 05:22:00,31.5,20.3,30.46,West,269,3.4,3.9,63,0.00,,CLR,0.00,VWS V13.01,2013-04-22 09:22:00,
2013-04-22 05:27:00,31.3,20.2,30.46,West,268,0.0,0.0,63,0.00,,CLR,0.00,VWS V13.01,2013-04-22 09:27:00,
2013-04-22 05:32:00,31.1,20.0,30.46,West,266,0.0,2.8,63,0.00,,CLR,0.00,VWS V13.01,2013-04-22 09:32:00,
2013-04-22 05:37:00,31.1,20.0,30.43,West,266,0.0,0.0,63,0.00,,CLR,0.00,VWS V13.01,2013-04-22 09:37:00,
2013-04-22 05:42:00,30.9,19.8,30.43,NW,316,0.0,0.0,63,0.00,,CLR,0.00,VWS V13.01,2013-04-22 09:42:00,
2013-04-22 05:47:00,31.1,20.4,30.43,NNW,340,0.0,0.0,64,0.00,,CLR,0.00,VWS V13.01,2013-04-22 09:47:00,
2013-04-22 05:52:00,31.3,20.5,30.43,WNW,297,0.0,0.0,64,0.00,,CLR,0.00,VWS V13.01,2013-04-22 09:52:00,
2013-04-22 05:57:00,31.3,20.5,30.43,North,353,0.0,0.0,64,0.00,,CLR,0.00,VWS V13.01,2013-04-22 09:57:00,
2013-04-22 06:02:00,31.3,20.5,30.43,North,353,0.0,0.0,64,0.00,,CLR,0.00,VWS V13.01,2013-04-22 10:02:00,
2013-04-22 06:07:00,31.1,20.4,30.46,North,353,0.0,0.0,64,0.00,,CLR,0.00,VWS V13.01,2013-04-22 10:07:00,
2013-04-22 06:12:00,31.1,20.4,30.46,North,353,0.0,0.0,64,0.00,,CLR,0.00,VWS V13.01,2013-04-22 10:12:00,
2013-04-22 06:17:00,30.7,20.0,30.46,North,353,0.0,0.0,64,0.00,,CLR,0.00,VWS V13.01,2013-04-22 10:17:00,
2013-04-22 06:22:00,30.6,19.9,30.43,North,353,0.0,0.0,64,0.00,,CLR,0.00,VWS V13.01,2013-04-22 10:22:00,
2013-04-22 06:27:00,30.6,19.9,30.43,North,353,0.0,0.0,64,0.00,,CLR,0.00,VWS V13.01,2013-04-22 10:27:00,
2013-04-22 06:32:00,30.4,19.7,30.43,North,353,0.0,0.0,64,0.00,,CLR,0.00,VWS V13.01,2013-04-22 10:32:00,
2013-04-22 06:37:00,30.2,19.5,30.43,North,353,0.0,0.0,64,0.00,,CLR,0.00,VWS V13.01,2013-04-22 10:37:00,
2013-04-22 06:42:00,30.6,20.2,30.43,North,353,0.0,0.0,65,0.00,,CLR,0.00,VWS V13.01,2013-04-22 10:42:00,
2013-04-22 06:47:00,31.1,20.4,30.43,North,353,0.0,0.0,64,0.00,,CLR,0.00,VWS V13.01,2013-04-22 10:47:00,
2013-04-22 06:52:00,31.5,20.7,30.46,North,353,0.0,0.0,64,0.00,,CLR,0.00,VWS V13.01,2013-04-22 10:52:00,
2013-04-22 06:57:00,31.8,21.0,30.46,North,353,0.0,0.0,64,0.00,,CLR,0.00,VWS V13.01,2013-04-22 10:57:00,
2013-04-22 07:02:00,32.5,21.7,30.46,North,353,0.0,0.0,64,0.00,,CLR,0.00,VWS V13.01,2013-04-22 11:02:00,
2013-04-22 07:07:00,33.4,22.6,30.46,North,353,0.0,0.0,64,0.00,,CLR,0.00,VWS V13.01,2013-04-22 11:07:00,
2013-04-22 07:12:00,34.3,23.4,30.46,North,353,0.0,0.0,64,0.00,,CLR,0.00,VWS V13.01,2013-04-22 11:12:00,
2013-04-22 07:17:00,35.1,24.1,30.46,North,353,0.0,0.0,64,0.00,,CLR,0.00,VWS V13.01,2013-04-22 11:17:00,
2013-04-22 07:22:00,36.1,24.8,30.46,North,353,0.0,0.0,63,0.00,,CLR,0.00,VWS V13.01,2013-04-22 11:22:00,
2013-04-22 07:27:00,37.0,25.6,30.46,North,353,0.0,0.0,63,0.00,,CLR,0.00,VWS V13.01,2013-04-22 11:27:00,
2013-04-22 07:32:00,37.9,26.1,30.46,WNW,286,0.0,0.0,62,0.00,,CLR,0.00,VWS V13.01,2013-04-22 11:32:00,
2013-04-22 07:37:00,38.7,26.8,30.46,WNW,286,0.0,0.0,62,0.00,,CLR,0.00,VWS V13.01,2013-04-22 11:37:00,
2013-04-22 07:42:00,39.0,27.1,30.46,WNW,286,0.0,0.0,62,0.00,,CLR,0.00,VWS V13.01,2013-04-22 11:42:00,
2013-04-22 07:47:00,39.0,26.7,30.46,West,280,2.8,2.8,61,0.00,,CLR,0.00,VWS V13.01,2013-04-22 11:47:00,
2013-04-22 07:52:00,39.2,26.1,30.46,West,278,0.0,0.0,59,0.00,,CLR,0.00,VWS V13.01,2013-04-22 11:52:00,
2013-04-22 07:57:00,39.9,26.8,30.46,West,278,0.0,0.0,59,0.00,,CLR,0.00,VWS V13.01,2013-04-22 11:57:00,
2013-04-22 08:02:00,40.8,27.6,30.46,West,278,0.0,0.0,59,0.00,,CLR,0.00,VWS V13.01,2013-04-22 12:02:00,
2013-04-22 08:07:00,41.9,28.2,30.46,West,264,0.0,0.0,58,0.00,,CLR,0.00,VWS V13.01,2013-04-22 12:07:00,
2013-04-22 08:12:00,42.6,25.8,30.46,West,260,2.8,3.9,51,0.00,,CLR,0.00,VWS V13.01,2013-04-22 12:12:00,
2013-04-22 08:17:00,43.3,26.0,30.46,WNW,287,3.4,3.9,50,0.00,,CLR,0.00,VWS V13.01,2013-04-22 12:17:00,
2013-04-22 08:22:00,44.4,27.4,30.46,NNW,333,0.0,0.0,51,0.00,,CLR,0.00,VWS V13.01,2013-04-22 12:22:00,
2013-04-22 08:27:00,45.0,27.0,30.46,North,8,3.9,3.9,49,0.00,,CLR,0.00,VWS V13.01,2013-04-22 12:27:00,
2013-04-22 08:32:00,45.3,27.3,30.46,West,269,5.0,5.0,49,0.00,,CLR,0.00,VWS V13.01,2013-04-22 12:32:00,
2013-04-22 08:37:00,46.0,27.5,30.46,WNW,294,0.0,5.0,48,0.00,,CLR,0.00,VWS V13.01,2013-04-22 12:37:00,
2013-04-22 08:42:00,46.0,27.5,30.46,WNW,286,3.4,5.0,48,0.00,,CLR,0.00,VWS V13.01,2013-04-22 12:42:00,
2013-04-22 08:47:00,46.8,27.6,30.46,West,267,0.0,3.9,47,0.00,,CLR,0.00,VWS V13.01,2013-04-22 12:47:00,
2013-04-22 08:52:00,47.1,27.9,30.46,North,11,3.4,6.2,47,0.00,,CLR,0.00,VWS V13.01,2013-04-22 12:52:00,
2013-04-22 08:57:00,47.1,27.9,30.46,North,357,3.9,5.0,47,0.00,,CLR,0.00,VWS V13.01,2013-04-22 12:57:00,
2013-04-22 09:02:00,47.3,26.5,30.46,NNW,346,6.2,6.2,44,0.00,,CLR,0.00,VWS V13.01,2013-04-22 13:02:00,
2013-04-22 09:07:00,47.3,26.5,30.46,North,0,3.9,7.8,44,0.00,,CLR,0.00,VWS V13.01,2013-04-22 13:07:00,
2013-04-22 09:12:00,47.5,26.7,30.46,North,350,0.0,3.9,44,0.00,,CLR,0.00,VWS V13.01,2013-04-22 13:12:00,
2013-04-22 09:17:00,48.0,27.2,30.46,North,5,5.0,6.7,44,0.00,,CLR,0.00,VWS V13.01,2013-04-22 13:17:00,
2013-04-22 09:22:00,48.7,27.8,30.46,NNE,13,6.2,6.2,44,0.00,,CLR,0.00,VWS V13.01,2013-04-22 13:22:00,
2013-04-22 09:27:00,48.6,26.0,30.46,NNE,16,5.0,7.3,41,0.00,,CLR,0.00,VWS V13.01,2013-04-22 13:27:00,
2013-04-22 09:32:00,48.2,25.6,30.46,NNE,25,0.0,3.9,41,0.00,,CLR,0.00,VWS V13.01,2013-04-22 13:32:00,
2013-04-22 09:37:00,48.9,26.3,30.46,East,97,5.0,5.0,41,0.00,,CLR,0.00,VWS V13.01,2013-04-22 13:37:00,
2013-04-22 09:42:00,49.6,26.9,30.46,North,0,0.0,3.4,41,0.00,,CLR,0.00,VWS V13.01,2013-04-22 13:42:00,
2013-04-22 09:47:00,49.5,26.8,30.46,North,6,3.4,10.1,41,0.00,,CLR,0.00,VWS V13.01,2013-04-22 13:47:00,
2013-04-22 09:52:00,49.8,27.1,30.46,NW,307,0.0,5.0,41,0.00,,CLR,0.00,VWS V13.01,2013-04-22 13:52:00,
2013-04-22 09:57:00,50.2,27.4,30.46,West,269,3.4,3.4,41,0.00,,CLR,0.00,VWS V13.01,2013-04-22 13:57:00,
2013-04-22 10:02:00,50.2,27.4,30.46,North,353,7.3,7.3,41,0.00,,CLR,0.00,VWS V13.01,2013-04-22 14:02:00,
2013-04-22 10:07:00,50.2,27.4,30.46,North,4,7.3,7.3,41,0.00,,CLR,0.00,VWS V13.01,2013-04-22 14:07:00,
2013-04-22 10:12:00,50.2,27.4,30.46,East,87,7.3,7.8,41,0.00,,CLR,0.00,VWS V13.01,2013-04-22 14:12:00,
2013-04-22 10:17:00,50.9,28.1,30.46,East,95,3.4,3.9,41,0.00,,CLR,0.00,VWS V13.01,2013-04-22 14:17:00,
2013-04-22 10:22:00,51.1,28.2,30.46,WSW,254,4.5,5.0,41,0.00,,CLR,0.00,VWS V13.01,2013-04-22 14:22:00,
2013-04-22 10:27:00,51.1,28.2,30.46,ENE,65,4.5,5.0,41,0.00,,CLR,0.00,VWS V13.01,2013-04-22 14:27:00,
2013-04-22 10:32:00,51.3,28.4,30.46,North,357,3.4,5.0,41,0.00,,CLR,0.00,VWS V13.01,2013-04-22 14:32:00,
2013-04-22 10:37:00,51.4,27.3,30.43,ENE,76,3.4,4.5,39,0.00,,CLR,0.00,VWS V13.01,2013-04-22 14:37:00,
2013-04-22 10:42:00,50.7,26.7,30.43,North,8,6.7,7.8,39,0.00,,CLR,0.00,VWS V13.01,2013-04-22 14:42:00,
2013-04-22 10:47:00,50.4,26.4,30.43,NNE,14,7.8,7.8,39,0.00,,CLR,0.00,VWS V13.01,2013-04-22 14:47:00,
2013-04-22 10:52:00,50.4,26.4,30.43,NNE,12,6.2,6.2,39,0.00,,CLR,0.00,VWS V13.01,2013-04-22 14:52:00,
2013-04-22 10:57:00,50.9,28.1,30.43,ESE,120,0.0,3.9,41,0.00,,CLR,0.00,VWS V13.01,2013-04-22 14:57:00,
2013-04-22 11:02:00,51.8,28.9,30.43,South,189,0.0,0.0,41,0.00,,CLR,0.00,VWS V13.01,2013-04-22 15:02:00,
2013-04-22 11:07:00,52.3,29.4,30.43,North,2,2.8,5.0,41,0.00,,CLR,0.00,VWS V13.01,2013-04-22 15:07:00,
2013-04-22 11:12:00,52.3,29.4,30.43,East,85,7.3,7.8,41,0.00,,CLR,0.00,VWS V13.01,2013-04-22 15:12:00,
2013-04-22 11:17:00,52.0,27.2,30.43,SE,134,3.9,3.9,38,0.00,,CLR,0.00,VWS V13.01,2013-04-22 15:17:00,
2013-04-22 11:22:00,52.9,29.8,30.43,ESE,117,2.8,6.7,41,0.00,,CLR,0.00,VWS V13.01,2013-04-22 15:22:00,
2013-04-22 11:27:00,53.8,30.0,30.43,North,357,0.0,3.9,40,0.00,,CLR,0.00,VWS V13.01,2013-04-22 15:27:00,
2013-04-22 11:32:00,54.1,30.4,30.43,NNE,29,0.0,0.0,40,0.00,,CLR,0.00,VWS V13.01,2013-04-22 15:32:00,
2013-04-22 11:37:00,53.8,30.0,30.43,North,8,3.4,7.8,40,0.00,,CLR,0.00,VWS V13.01,2013-04-22 15:37:00,
2013-04-22 11:42:00,53.1,28.1,30.43,NNE,17,5.0,5.0,38,0.00,,CLR,0.00,VWS V13.01,2013-04-22 15:42:00,
2013-04-22 11:47:00,53.4,30.3,30.43,NW,313,2.8,3.4,41,0.00,,CLR,0.00,VWS V13.01,2013-04-22 15:47:00,
2013-04-22 11:52:00,54.5,30.7,30.43,North,10,0.0,3.9,40,0.00,,CLR,0.00,VWS V13.01,2013-04-22 15:52:00,
2013-04-22 11:57:00,55.0,29.9,30.43,West,267,5.0,6.7,38,0.00,,CLR,0.00,VWS V13.01,2013-04-22 15:57:00,
2013-04-22 12:02:00,55.0,29.9,30.43,WSW,251,4.5,5.0,38,0.00,,CLR,0.00,VWS V13.01,2013-04-22 16:02:00,
2013-04-22 12:07:00,54.9,31.0,30.43,WNW,285,3.9,3.9,40,0.00,,CLR,0.00,VWS V13.01,2013-04-22 16:07:00,
2013-04-22 12:12:00,55.2,30.1,30.43,SW,234,0.0,5.0,38,0.00,,CLR,0.00,VWS V13.01,2013-04-22 16:12:00,
2013-04-22 12:17:00,55.2,30.1,30.43,ENE,76,3.9,6.7,38,0.00,,CLR,0.00,VWS V13.01,2013-04-22 16:17:00,
2013-04-22 12:22:00,55.4,29.6,30.40,North,357,3.9,3.9,37,0.00,,CLR,0.00,VWS V13.01,2013-04-22 16:22:00,
2013-04-22 12:27:00,54.3,29.3,30.40,West,265,4.5,5.0,38,0.00,,CLR,0.00,VWS V13.01,2013-04-22 16:27:00,
2013-04-22 12:32:00,54.7,29.6,30.40,West,263,3.4,5.0,38,0.00,,CLR,0.00,VWS V13.01,2013-04-22 16:32:00,
2013-04-22 12:37:00,55.2,30.1,30.40,North,0,3.9,8.9,38,0.00,,CLR,0.00,VWS V13.01,2013-04-22 16:37:00,
2013-04-22 12:42:00,54.5,29.4,30.40,North,7,2.8,2.8,38,0.00,,CLR,0.00,VWS V13.01,2013-04-22 16:42:00,
2013-04-22 12:47:00,54.9,29.8,30.40,North,357,7.3,10.1,38,0.00,,CLR,0.00,VWS V13.01,2013-04-22 16:47:00,
2013-04-22 12:52:00,54.5,29.4,30.40,NE,39,3.4,6.2,38,0.00,,CLR,0.00,VWS V13.01,2013-04-22 16:52:00,
2013-04-22 12:57:00,54.5,29.4,30.40,East,83,4.5,4.5,38,0.00,,CLR,0.00,VWS V13.01,2013-04-22 16:57:00,
2013-04-22 13:02:00,55.0,29.9,30.40,West,267,3.9,6.7,38,0.00,,CLR,0.00,VWS V13.01,2013-04-22 17:02:00,
2013-04-22 13:07:00,55.6,29.7,30.37,East,99,3.4,7.3,37,0.00,,CLR,0.00,VWS V13.01,2013-04-22 17:07:00,
2013-04-22 13:12:00,56.3,30.4,30.37,NE,46,10.3,10.3,37,0.00,,CLR,0.00,VWS V13.01,2013-04-22 17:12:00,
2013-04-22 13:17:00,55.9,30.1,30.37,NE,43,7.3,10.3,37,0.00,,CLR,0.00,VWS V13.01,2013-04-22 17:17:00,
2013-04-22 13:22:00,55.8,29.9,30.37,NE,52,3.4,6.2,37,0.00,,CLR,0.00,VWS V13.01,2013-04-22 17:22:00,
2013-04-22 13:27:00,55.9,30.1,30.37,North,6,5.0,7.3,37,0.00,,CLR,0.00,VWS V13.01,2013-04-22 17:27:00,
2013-04-22 13:32:00,56.1,30.2,30.37,South,170,7.8,7.8,37,0.00,,CLR,0.00,VWS V13.01,2013-04-22 17:32:00,
2013-04-22 13:37:00,56.7,30.7,30.37,South,171,0.0,3.9,37,0.00,,CLR,0.00,VWS V13.01,2013-04-22 17:37:00,
2013-04-22 13:42:00,57.2,31.2,30.37,ENE,63,0.0,5.0,37,0.00,,CLR,0.00,VWS V13.01,2013-04-22 17:42:00,
2013-04-22 13:47:00,57.6,31.5,30.37,East,99,3.9,9.5,37,0.00,,CLR,0.00,VWS V13.01,2013-04-22 17:47:00,
2013-04-22 13:52:00,57.6,31.5,30.37,SE,139,10.1,12.6,37,0.00,,CLR,0.00,VWS V13.01,2013-04-22 17:52:00,
2013-04-22 13:57:00,57.7,31.7,30.37,East,97,7.3,7.8,37,0.00,,CLR,0.00,VWS V13.01,2013-04-22 17:57:00,
2013-04-22 14:02:00,57.6,31.5,30.37,ESE,112,0.0,5.0,37,0.00,,CLR,0.00,VWS V13.01,2013-04-22 18:02:00,
2013-04-22 14:07:00,57.9,31.8,30.37,NNE,22,5.0,6.2,37,0.00,,CLR,0.00,VWS V13.01,2013-04-22 18:07:00,
2013-04-22 14:12:00,57.6,31.5,30.37,North,3,2.8,5.0,37,0.00,,CLR,0.00,VWS V13.01,2013-04-22 18:12:00,
2013-04-22 14:17:00,57.6,31.5,30.37,NW,306,0.0,5.0,37,0.00,,CLR,0.00,VWS V13.01,2013-04-22 18:17:00,
2013-04-22 14:22:00,57.6,31.5,30.37,North,353,6.2,7.3,37,0.00,,CLR,0.00,VWS V13.01,2013-04-22 18:22:00,
2013-04-22 14:27:00,57.2,31.2,30.37,SSE,147,6.2,6.2,37,0.00,,CLR,0.00,VWS V13.01,2013-04-22 18:27:00,
2013-04-22 14:32:00,57.9,31.8,30.37,ENE,76,3.4,4.5,37,0.00,,CLR,0.00,VWS V13.01,2013-04-22 18:32:00,
2013-04-22 14:37:00,58.5,32.3,30.34,East,90,6.7,7.3,37,0.00,,CLR,0.00,VWS V13.01,2013-04-22 18:37:00,
2013-04-22 14:42:00,58.6,32.5,30.34,East,94,5.0,5.0,37,0.00,,CLR,0.00,VWS V13.01,2013-04-22 18:42:00,
2013-04-22 14:47:00,58.8,32.6,30.34,SSE,155,6.2,6.7,37,0.00,,CLR,0.00,VWS V13.01,2013-04-22 18:47:00,
2013-04-22 14:52:00,58.3,32.2,30.34,East,100,5.0,7.8,37,0.00,,CLR,0.00,VWS V13.01,2013-04-22 18:52:00,
2013-04-22 14:57:00,58.1,32.0,30.34,East,98,6.7,6.7,37,0.00,,CLR,0.00,VWS V13.01,2013-04-22 18:57:00,
2013-04-22 15:02:00,58.1,32.0,30.34,East,92,7.8,7.8,37,0.00,,CLR,0.00,VWS V13.01,2013-04-22 19:02:00,
2013-04-22 15:07:00,58.6,32.5,30.34,ENE,57,3.4,3.4,37,0.00,,CLR,0.00,VWS V13.01,2013-04-22 19:07:00,
2013-04-22 15:12:00,58.8,32.6,30.34,NE,47,5.0,5.0,37,0.00,,CLR,0.00,VWS V13.01,2013-04-22 19:12:00,
2013-04-22 15:17:00,58.8,32.6,30.34,SE,142,3.9,6.7,37,0.00,,CLR,0.00,VWS V13.01,2013-04-22 19:17:00,
2013-04-22 15:22:00,59.0,32.8,30.34,ENE,74,3.4,7.3,37,0.00,,CLR,0.00,VWS V13.01,2013-04-22 19:22:00,
2013-04-22 15:27:00,59.2,33.0,30.34,East,79,5.0,7.8,37,0.00,,CLR,0.00,VWS V13.01,2013-04-22 19:27:00,
2013-04-22 15:32:00,58.8,32.6,30.34,North,0,4.5,5.0,37,0.00,,CLR,0.00,VWS V13.01,2013-04-22 19:32:00,
2013-04-22 15:37:00,59.0,32.8,30.31,ESE,117,7.3,12.0,37,0.00,,CLR,0.00,VWS V13.01,2013-04-22 19:37:00,
2013-04-22 15:42:00,59.2,33.0,30.31,SSW,192,3.9,3.9,37,0.00,,CLR,0.00,VWS V13.01,2013-04-22 19:42:00,
2013-04-22 15:47:00,59.5,33.3,30.31,ENE,78,5.0,5.0,37,0.00,,CLR,0.00,VWS V13.01,2013-04-22 19:47:00,
2013-04-22 15:52:00,59.4,33.1,30.31,SSE,160,5.0,5.0,37,0.00,,CLR,0.00,VWS V13.01,2013-04-22 19:52:00,
2013-04-22 15:57:00,59.7,33.4,30.31,East,93,6.7,7.3,37,0.00,,CLR,0.00,VWS V13.01,2013-04-22 19:57:00,
2013-04-22 16:02:00,59.7,33.4,30.31,East,97,4.5,9.5,37,0.00,,CLR,0.00,VWS V13.01,2013-04-22 20:02:00,
2013-04-22 16:07:00,59.5,33.3,30.31,West,271,3.4,7.3,37,0.00,,CLR,0.00,VWS V13.01,2013-04-22 20:07:00,
2013-04-22 16:12:00,59.7,33.4,30.31,ESE,119,4.5,7.3,37,0.00,,CLR,0.00,VWS V13.01,2013-04-22 20:12:00,
2013-04-22 16:17:00,59.7,33.4,30.31,South,171,7.8,7.8,37,0.00,,CLR,0.00,VWS V13.01,2013-04-22 20:17:00,
2013-04-22 16:22:00,59.7,33.4,30.31,ESE,102,3.4,7.3,37,0.00,,CLR,0.00,VWS V13.01,2013-04-22 20:22:00,
2013-04-22 16:27:00,59.4,33.1,30.31,East,80,3.4,5.0,37,0.00,,CLR,0.00,VWS V13.01,2013-04-22 20:27:00,
2013-04-22 16:32:00,59.4,33.1,30.31,NE,50,7.3,7.8,37,0.00,,CLR,0.00,VWS V13.01,2013-04-22 20:32:00,
2013-04-22 16:37:00,59.4,33.1,30.28,East,99,5.0,10.1,37,0.00,,CLR,0.00,VWS V13.01,2013-04-22 20:37:00,
2013-04-22 16:42:00,59.2,33.0,30.28,East,80,6.2,7.8,37,0.00,,CLR,0.00,VWS V13.01,2013-04-22 20:42:00,
2013-04-22 16:47:00,58.8,32.6,30.28,ESE,118,4.5,6.7,37,0.00,,CLR,0.00,VWS V13.01,2013-04-22 20:47:00,
2013-04-22 16:52:00,58.8,32.6,30.28,East,97,4.5,6.7,37,0.00,,CLR,0.00,VWS V13.01,2013-04-22 20:52:00,
2013-04-22 16:57:00,58.5,32.3,30.28,ENE,75,6.2,9.5,37,0.00,,CLR,0.00,VWS V13.01,2013-04-22 20:57:00,
2013-04-22 17:03:00,57.9,31.8,30.28,ENE,70,3.9,7.8,37,0.00,,CLR,0.00,VWS V13.01,2013-04-22 21:03:00,
2013-04-22 17:08:00,57.6,31.5,30.28,SSE,162,7.8,10.3,37,0.00,,CLR,0.00,VWS V13.01,2013-04-22 21:08:00,
2013-04-22 17:13:00,57.2,31.2,30.28,South,184,6.7,6.7,37,0.00,,CLR,0.00,VWS V13.01,2013-04-22 21:13:00,
2013-04-22 17:18:00,57.2,31.2,30.28,SE,139,6.7,7.8,37,0.00,,CLR,0.00,VWS V13.01,2013-04-22 21:18:00,
2013-04-22 17:23:00,57.2,31.2,30.28,ENE,76,4.5,5.0,37,0.00,,CLR,0.00,VWS V13.01,2013-04-22 21:23:00,
2013-04-22 17:28:00,57.2,31.2,30.28,SE,139,6.2,9.5,37,0.00,,CLR,0.00,VWS V13.01,2013-04-22 21:28:00,
2013-04-22 17:33:00,57.0,31.0,30.28,ESE,116,4.5,7.3,37,0.00,,CLR,0.00,VWS V13.01,2013-04-22 21:33:00,
2013-04-22 17:38:00,57.0,31.0,30.28,SE,128,4.5,7.3,37,0.00,,CLR,0.00,VWS V13.01,2013-04-22 21:38:00,
2013-04-22 17:43:00,56.8,30.9,30.28,ESE,106,4.5,7.8,37,0.00,,CLR,0.00,VWS V13.01,2013-04-22 21:43:00,
2013-04-22 17:48:00,56.8,30.9,30.28,ESE,105,5.0,7.3,37,0.00,,CLR,0.00,VWS V13.01,2013-04-22 21:48:00,
2013-04-22 17:53:00,56.8,30.9,30.28,ESE,123,7.3,7.3,37,0.00,,CLR,0.00,VWS V13.01,2013-04-22 21:53:00,
2013-04-22 17:58:00,56.7,30.7,30.28,SE,139,7.8,7.8,37,0.00,,CLR,0.00,VWS V13.01,2013-04-22 21:58:00,
2013-04-22 18:03:00,56.7,30.7,30.28,East,94,3.4,5.0,37,0.00,,CLR,0.00,VWS V13.01,2013-04-22 22:03:00,
2013-04-22 18:08:00,56.5,30.5,30.28,ESE,121,3.4,5.0,37,0.00,,CLR,0.00,VWS V13.01,2013-04-22 22:08:00,
2013-04-22 18:13:00,56.5,30.5,30.28,ESE,110,3.4,5.0,37,0.00,,CLR,0.00,VWS V13.01,2013-04-22 22:13:00,
2013-04-22 18:18:00,56.5,30.5,30.28,East,97,6.7,6.7,37,0.00,,CLR,0.00,VWS V13.01,2013-04-22 22:18:00,
2013-04-22 18:23:00,56.5,30.5,30.28,East,81,4.5,6.2,37,0.00,,CLR,0.00,VWS V13.01,2013-04-22 22:23:00,
2013-04-22 18:28:00,56.3,30.4,30.28,SE,125,6.2,7.3,37,0.00,,CLR,0.00,VWS V13.01,2013-04-22 22:28:00,
2013-04-22 18:33:00,56.3,30.4,30.28,SE,145,3.4,6.7,37,0.00,,CLR,0.00,VWS V13.01,2013-04-22 22:33:00,
2013-04-22 18:38:00,55.9,30.1,30.28,SE,143,5.0,6.2,37,0.00,,CLR,0.00,VWS V13.01,2013-04-22 22:38:00,
2013-04-22 18:43:00,55.8,29.9,30.28,SE,145,5.0,7.8,37,0.00,,CLR,0.00,VWS V13.01,2013-04-22 22:43:00,
2013-04-22 18:48:00,55.6,29.7,30.28,SSE,161,5.0,10.1,37,0.00,,CLR,0.00,VWS V13.01,2013-04-22 22:48:00,
2013-04-22 18:53:00,55.2,30.1,30.28,ESE,103,5.6,7.8,38,0.00,,CLR,0.00,VWS V13.01,2013-04-22 22:53:00,
2013-04-22 18:58:00,55.0,29.9,30.28,SSE,153,4.5,6.2,38,0.00,,CLR,0.00,VWS V13.01,2013-04-22 22:58:00,
2013-04-22 19:03:00,54.7,29.6,30.28,ESE,111,7.8,7.8,38,0.00,,CLR,0.00,VWS V13.01,2013-04-22 23:03:00,
2013-04-22 19:08:00,54.5,29.4,30.28,ESE,103,5.0,5.0,38,0.00,,CLR,0.00,VWS V13.01,2013-04-22 23:08:00,
2013-04-22 19:13:00,54.1,29.1,30.28,East,98,7.8,7.8,38,0.00,,CLR,0.00,VWS V13.01,2013-04-22 23:13:00,
2013-04-22 19:18:00,53.8,28.8,30.28,ESE,119,7.8,7.8,38,0.00,,CLR,0.00,VWS V13.01,2013-04-22 23:18:00,
2013-04-22 19:23:00,53.2,28.3,30.28,East,98,4.5,7.3,38,0.00,,CLR,0.00,VWS V13.01,2013-04-22 23:23:00,
2013-04-22 19:28:00,53.1,28.1,30.28,SE,138,4.5,6.7,38,0.00,,CLR,0.00,VWS V13.01,2013-04-22 23:28:00,
2013-04-22 19:33:00,52.5,27.7,30.28,ESE,109,5.0,7.8,38,0.00,,CLR,0.00,VWS V13.01,2013-04-22 23:33:00,
2013-04-22 19:38:00,52.2,27.3,30.28,East,99,5.0,6.2,38,0.00,,CLR,0.00,VWS V13.01,2013-04-22 23:38:00,
2013-04-22 19:43:00,51.8,27.0,30.28,East,99,3.9,5.0,38,0.00,,CLR,0.00,VWS V13.01,2013-04-22 23:43:00,
2013-04-22 19:48:00,51.6,27.5,30.28,ESE,111,4.5,6.7,39,0.00,,CLR,0.00,VWS V13.01,2013-04-22 23:48:00,
2013-04-22 19:53:00,51.3,27.2,30.31,ESE,105,2.8,5.0,39,0.00,,CLR,0.00,VWS V13.01,2013-04-22 23:53:00,
2013-04-22 19:58:00,50.9,26.8,30.31,ESE,109,2.8,2.8,39,0.00,,CLR,0.00,VWS V13.01,2013-04-22 23:58:00,
2013-04-22 20:03:00,50.5,26.5,30.31,ESE,120,0.0,2.8,39,0.00,,CLR,0.00,VWS V13.01,2013-04-23 00:03:00,
2013-04-22 20:08:00,50.2,26.2,30.31,SSE,154,2.8,5.0,39,0.00,,CLR,0.00,VWS V13.01,2013-04-23 00:08:00,
2013-04-22 20:13:00,49.8,25.9,30.31,SSE,147,3.4,5.0,39,0.00,,CLR,0.00,VWS V13.01,2013-04-23 00:13:00,
2013-04-22 20:18:00,49.6,25.7,30.31,ESE,113,0.0,4.5,39,0.00,,CLR,0.00,VWS V13.01,2013-04-23 00:18:00,
2013-04-22 20:23:00,49.3,25.4,30.31,SSE,149,0.0,3.9,39,0.00,,CLR,0.00,VWS V13.01,2013-04-23 00:23:00,
2013-04-22 20:28:00,48.7,24.9,30.31,SE,131,0.0,0.0,39,0.00,,CLR,0.00,VWS V13.01,2013-04-23 00:28:00,
2013-04-22 20:33:00,48.6,24.7,30.31,SE,139,5.0,5.0,39,0.00,,CLR,0.00,VWS V13.01,2013-04-23 00:33:00,
2013-04-22 20:38:00,48.2,24.4,30.31,SE,136,0.0,3.9,39,0.00,,CLR,0.00,VWS V13.01,2013-04-23 00:38:00,
2013-04-22 20:43:00,48.0,24.3,30.31,SSE,160,3.4,5.0,39,0.00,,CLR,0.00,VWS V13.01,2013-04-23 00:43:00,
2013-04-22 20:48:00,48.0,24.3,30.31,SSE,158,0.0,0.0,39,0.00,,CLR,0.00,VWS V13.01,2013-04-23 00:48:00,
2013-04-22 20:53:00,47.8,24.1,30.31,SSE,160,0.0,0.0,39,0.00,,CLR,0.00,VWS V13.01,2013-04-23 00:53:00,
2013-04-22 20:58:00,47.7,23.9,30.31,SSE,149,0.0,0.0,39,0.00,,CLR,0.00,VWS V13.01,2013-04-23 00:58:00,
2013-04-22 21:03:00,47.5,23.8,30.31,SSE,162,0.0,0.0,39,0.00,,CLR,0.00,VWS V13.01,2013-04-23 01:03:00,
2013-04-22 21:08:00,47.3,23.6,30.31,SSE,159,0.0,0.0,39,0.00,,CLR,0.00,VWS V13.01,2013-04-23 01:08:00,
2013-04-22 21:13:00,47.1,23.5,30.31,SSE,159,0.0,0.0,39,0.00,,CLR,0.00,VWS V13.01,2013-04-23 01:13:00,
2013-04-22 21:18:00,46.8,23.1,30.31,SSE,159,0.0,0.0,39,0.00,,CLR,0.00,VWS V13.01,2013-04-23 01:18:00,
2013-04-22 21:23:00,46.6,23.0,30.31,SSE,159,0.0,0.0,39,0.00,,CLR,0.00,VWS V13.01,2013-04-23 01:23:00,
2013-04-22 21:28:00,46.2,23.2,30.31,SSE,159,0.0,0.0,40,0.00,,CLR,0.00,VWS V13.01,2013-04-23 01:28:00,
2013-04-22 21:33:00,45.9,22.9,30.31,SSE,159,0.0,0.0,40,0.00,,CLR,0.00,VWS V13.01,2013-04-23 01:33:00,
2013-04-22 21:38:00,45.1,22.3,30.31,SSE,162,0.0,0.0,40,0.00,,CLR,0.00,VWS V13.01,2013-04-23 01:38:00,
2013-04-22 21:43:00,44.8,23.1,30.31,East,91,0.0,0.0,42,0.00,,CLR,0.00,VWS V13.01,2013-04-23 01:43:00,
2013-04-22 21:48:00,44.6,22.9,30.31,East,91,0.0,0.0,42,0.00,,CLR,0.00,VWS V13.01,2013-04-23 01:48:00,
2013-04-22 21:53:00,44.8,23.1,30.34,East,91,0.0,0.0,42,0.00,,CLR,0.00,VWS V13.01,2013-04-23 01:53:00,
2013-04-22 21:58:00,44.6,22.9,30.34,East,96,0.0,0.0,42,0.00,,SCT055,0.00,VWS V13.01,2013-04-23 01:58:00,
2013-04-22 22:03:00,44.4,23.3,30.34,East,100,0.0,0.0,43,0.00,,SCT055,0.00,VWS V13.01,2013-04-23 02:03:00,
2013-04-22 22:08:00,44.2,23.2,30.34,East,100,0.0,0.0,43,0.00,,SCT055,0.00,VWS V13.01,2013-04-23 02:08:00,
2013-04-22 22:13:00,44.1,23.0,30.34,East,100,0.0,0.0,43,0.00,,SCT055,0.00,VWS V13.01,2013-04-23 02:13:00,
2013-04-22 22:18:00,43.7,22.7,30.34,East,100,0.0,0.0,43,0.00,,SCT055,0.00,VWS V13.01,2013-04-23 02:18:00,
2013-04-22 22:23:00,43.3,22.4,30.34,East,100,0.0,0.0,43,0.00,,SCT055,0.00,VWS V13.01,2013-04-23 02:23:00,
2013-04-22 22:28:00,43.0,22.0,30.34,East,100,0.0,0.0,43,0.00,,SCT055,0.00,VWS V13.01,2013-04-23 02:28:00,
2013-04-22 22:33:00,42.4,23.1,30.34,East,100,0.0,0.0,46,0.00,,SCT055,0.00,VWS V13.01,2013-04-23 02:33:00,
2013-04-22 22:38:00,42.4,23.1,30.34,ENE,70,0.0,0.0,46,0.00,,SCT060,0.00,VWS V13.01,2013-04-23 02:38:00,
2013-04-22 22:43:00,42.3,23.0,30.34,ENE,70,0.0,0.0,46,0.00,,SCT060,0.00,VWS V13.01,2013-04-23 02:43:00,
2013-04-22 22:48:00,42.8,23.0,30.34,ENE,63,0.0,0.0,45,0.00,,SCT060,0.00,VWS V13.01,2013-04-23 02:48:00,
2013-04-22 22:53:00,43.0,24.6,30.34,ENE,61,0.0,0.0,48,0.00,,SCT060,0.00,VWS V13.01,2013-04-23 02:53:00,
2013-04-22 22:58:00,43.5,25.1,30.34,ENE,64,0.0,0.0,48,0.00,,OVC065,0.00,VWS V13.01,2013-04-23 02:58:00,
2013-04-22 23:03:00,43.7,25.3,30.34,ENE,65,0.0,0.0,48,0.00,,OVC065,0.00,VWS V13.01,2013-04-23 03:03:00,
2013-04-22 23:08:00,43.5,25.1,30.31,ENE,66,0.0,0.0,48,0.00,,OVC065,0.00,VWS V13.01,2013-04-23 03:08:00,
2013-04-22 23:13:00,43.3,25.0,30.31,ENE,73,0.0,0.0,48,0.00,,OVC065,0.00,VWS V13.01,2013-04-23 03:13:00,
2013-04-22 23:18:00,43.2,24.8,30.31,ENE,73,0.0,0.0,48,0.00,,OVC055,0.00,VWS V13.01,2013-04-23 03:18:00,
2013-04-22 23:23:00,42.8,24.5,30.31,ENE,73,0.0,0.0,48,0.00,,OVC055,0.00,VWS V13.01,2013-04-23 03:23:00,
2013-04-22 23:28:00,42.6,24.3,30.31,NE,50,2.8,3.9,48,0.00,,OVC055,0.00,VWS V13.01,2013-04-23 03:28:00,
2013-04-22 23:33:00,43.3,25.0,30.31,ENE,75,3.9,3.9,48,0.00,,OVC055,0.00,VWS V13.01,2013-04-23 03:33:00,
2013-04-22 23:38:00,44.1,25.6,30.31,NE,50,0.0,0.0,48,0.00,,OVC050,0.00,VWS V13.01,2013-04-23 03:38:00,
2013-04-22 23:43:00,44.4,26.0,30.31,NE,50,0.0,0.0,48,0.00,,OVC050,0.00,VWS V13.01,2013-04-23 03:43:00,
2013-04-22 23:48:00,44.1,25.6,30.31,NE,50,0.0,0.0,48,0.00,,OVC050,0.00,VWS V13.01,2013-04-23 03:48:00,
2013-04-22 23:53:00,43.5,25.1,30.31,North,0,0.0,5.0,48,0.00,,OVC050,0.00,VWS V13.01,2013-04-23 03:53:00,
2013-04-22 23:58:00,42.6,24.3,30.31,North,0,0.0,0.0,48,0.00,,OVC060,0.00,VWS V13.01,2013-04-23 03:58:00,